This demonstration page uses our WeatherBlox Daily Observations layout. Learn more.

Left ArrowRight Arrow

39.01783, -85.05884

Hourly Observations for October 13, 2019

Temp ( °F °C ) Dew Point ( °F °C ) Humidity (%) Winds ( mph kmh ) Pressure ( in mb ) Visibility ( mi km ) Precip ( " mm )
12:52 am 00:52 Clear 40 4.4 34 1.1 79 79 S 6 9 30.06 1018 10 16 0.00 0.00
1:52 am 01:52 Mostly Clear 39 3.9 32 0 76 76 S 7 11 30.05 1018 10 16 0.00 0.00
2:52 am 02:52 Mostly Clear 38 3.3 32 0 79 79 S 8 13 30.04 1017 10 16 0.00 0.00
3:52 am 03:52 Mostly Clear 40 4.4 31 -0.6 70 70 SSW 8 13 30.03 1017 10 16 0.00 0.00
4:52 am 04:52 Clear 39 3.9 32 0 76 76 Calm 30.04 1017 10 16 0.00 0.00
5:52 am 05:52 Mostly Clear 36 2.2 31 -0.6 82 82 S 7 11 30.03 1017 10 16 0.00 0.00
6:52 am 06:52 Partly Cloudy 35 1.7 30 -1.1 82 82 S 7 11 30.04 1017 10 16 0.00 0.00
7:52 am 07:52 Mostly Sunny 38 3.3 32 0 79 79 Calm 30.04 1017 10 16 0.00 0.00
8:52 am 08:52 Partly Cloudy 40 4.4 33 0.6 77 77 S 8 13 30.04 1017 10 16 0.00 0.00
9:52 am 09:52 Partly Cloudy 48 8.9 36 2.2 63 63 SSW 9 15 30.03 1017 10 16 0.00 0.00
10:52 am 10:52 Partly Cloudy 53 11.7 35 1.7 51 51 SW 10 17 30.04 1017 10 16 0.00 0.00
11:52 am 11:52 Mostly Sunny 56 13.3 35 1.7 46 46 SW 10 17 30.02 1017 10 16 0.00 0.00
12:52 pm 12:52 Mostly Sunny 60 15.6 33 0.6 36 36 SW 13 20 29.99 1016 10 16 0.00 0.00
1:52 pm 13:52 Mostly Sunny 64 17.8 35 1.7 34 34 SSW 10 17 29.96 1015 10 16 0.00 0.00
2:52 pm 14:52 Sunny 66 18.9 34 1.1 30 30 SW 10 17 29.93 1014 10 16 0.00 0.00
3:52 pm 15:52 Sunny 68 20 32 0 26 26 SSW 14 22 29.91 1013 10 16 0.00 0.00
4:52 pm 16:52 Sunny 68 20 31 -0.6 25 25 SW 8 13 29.91 1013 10 16 0.00 0.00
5:52 pm 17:52 Sunny 67 19.4 32 0 27 27 SSW 13 20 29.92 1013 10 16 0.00 0.00
6:52 pm 18:52 Sunny 63 17.2 32 0 31 31 SSW 8 13 29.92 1013 10 16 0.00 0.00
7:52 pm 19:52 Clear 58 14.4 33 0.6 39 39 SSW 6 9 29.93 1014 10 16 0.00 0.00
8:52 pm 20:52 Clear 56 13.3 34 1.1 44 44 SSW 7 11 29.95 1014 10 16 0.00 0.00
9:52 pm 21:52 Clear 53 11.7 37 2.8 55 55 S 9 15 29.94 1014 10 16 0.00 0.00
10:52 pm 22:52 Clear 53 11.7 37 2.8 55 55 SSW 6 9 29.95 1014 10 16 0.00 0.00
11:52 pm 23:52 Clear 52 11.1 37 2.8 57 57 SSW 6 9 29.96 1015 10 16 0.00 0.00

Powered by AerisWeather